Wind_Speed
14 14 14 14 14 15 15 15 14 15 15 16 15 16 16 17 17 17 17 16 16 17 17 17 16 16 16 17 17 17 17 18 18 18 18 18 17 17
15 15 15 15 15 16 16 16 16 16 16 17 17 17 17 17 17 18 18 18 19 19 18 18 18 18 18 18 18 18 19 19 19 19 19 19 19 18
17 17 16 16 16 16 16 17 17 17 17 17 17 17 18 18 18 18 19 19 19 20 20 20 19 20 20 20 20 20 20 20 20 20 20 20 20 20
18 18 17 17 17 17 17 17 17 17 18 17 18 18 18 19 20 20 20 20 20 20 20 20 20 21 21 21 21 21 21 21 22 21 21 21 21 21
18 18 18 18 18 19 18 18 18 19 19 19 19 19 19 20 20 21 21 21 21 21 21 21 21 21 22 22 22 22 22 23 23 23 23 22 22 22
19 20 20 20 20 20 20 20 20 20 21 21 21 21 21 21 21 21 21 21 21 22 22 21 21 21 22 22 23 23 24 24 24 24 23 23 23 23
21 21 22 21 21 21 21 21 21 21 22 22 22 23 23 23 23 23 22 22 22 23 23 23 23 23 23 23 23 24 25 25 24 24 24 24 24 24
24 23 24 24 23 22 22 22 23 23 24 24 24 24 24 24 24 24 24 23 23 24 24 24 24 25 25 25 25 25 25 25 26 25 25 25 25 25
24 24 24 25 24 24 24 24 25 25 25 26 25 25 25 24 24 24 25 25 25 25 25 25 26 26 26 26 25 25 25 25 25 26 26 25 25 25
24 24 25 25 25 25 26 26 27 27 27 27 26 26 26 26 26 26 26 26 26 26 26 26 26 26 26 26 26 26 26 25 25 25 26 25 25 25
24 24 25 26 26 26 26 26 27 28 28 28 27 27 27 27 27 27 27 27 26 26 26 27 27 26 26 26 26 27 27 26 26 25 26 26 26 26
26 25 25 26 26 26 26 27 27 27 27 27 27 27 27 28 28 28 27 27 27 27 28 28 27 27 27 27 27 27 27 27 27 27 27 27 27 26
27 27 26 26 27 27 27 27 28 28 27 27 28 28 28 28 28 28 28 28 28 29 29 29 28 28 29 28 28 27 27 28 28 28 29 28 27 27
28 28 27 27 26 27 27 28 28 29 28 28 28 28 28 28 29 29 29 29 30 30 30 30 30 30 30 29 28 28 28 29 29 29 29 29 28 28
29 28 28 28 28 28 28 29 29 29 29 28 28 28 29 29 29 30 30 31 31 31 31 31 31 30 30 30 29 29 28 28 28 29 29 29 29 29
29 29 29 29 29 29 29 29 29 29 29 29 29 29 29 30 30 30 30 31 31 31 31 31 31 30 30 30 30 29 29 29 29 30 30 30 30 30
29 29 28 29 30 30 30 29 29 29 29 29 30 30 30 30 30 30 31 31 31 31 31 30 30 29 29 30 30 29 29 30 30 30 30 30 30 30
30 29 29 28 28 29 29 29 29 30 30 29 29 30 30 30 30 31 30 30 30 30 30 30 29 28 28 28 29 29 29 30 30 30 30 30 30 30
29 28 27 28 28 28 28 28 28 29 29 29 29 29 30 30 30 30 30 30 30 29 29 30 29 28 28 28 28 29 29 29 29 30 30 30 30 29
28 27 27 28 27 27 27 28 28 28 28 28 28 28 29 30 30 30 30 29 29 29 29 29 29 28 28 28 28 28 29 29 29 30 30 30 30 30
28 27 27 27 27 27 27 27 28 28 28 28 27 28 28 29 29 29 28 28 28 29 29 29 29 29 29 29 29 29 29 30 30 30 29 30 30 30
27 26 27 27 27 26 26 27 27 27 27 27 27 28 28 28 28 28 28 28 28 28 28 28 28 28 28 28 29 29 29 29 29 29 29 30 30 29
27 27 27 26 26 26 26 27 27 27 27 28 28 28 28 28 28 28 28 28 28 28 27 28 28 29 28 28 28 28 29 29 29 29 28 29 29 28
Wind_Direction
283 285 286 286 288 287 286 288 291 293 293 289 286 284 285 284 281 279 278 279 278 281 282 284 283 284 283 283 284 284 284 284 284 285 287 289 289 286
283 283 284 286 287 286 288 289 291 292 292 291 286 284 283 282 282 281 279 278 278 280 281 281 282 283 282 282 283 284 284 283 283 282 283 286 285 284
283 282 282 283 284 285 286 288 291 292 290 289 287 285 283 281 281 280 279 278 278 278 279 279 281 282 282 282 281 282 283 284 283 281 281 283 283 282
282 282 280 281 282 284 286 289 290 290 289 289 287 284 283 283 281 278 278 279 279 279 280 281 281 282 282 281 279 280 281 283 282 281 281 281 282 282
283 282 280 280 282 283 285 287 289 288 289 289 289 286 285 284 280 278 277 279 279 280 280 282 281 282 282 281 279 279 280 281 280 280 279 279 279 279
282 282 280 279 280 282 284 286 288 289 288 288 288 286 284 284 281 278 277 279 280 281 281 282 283 282 281 281 280 280 280 280 280 280 280 278 278 278
281 281 281 279 280 281 283 285 286 288 288 288 288 286 284 283 281 278 275 278 278 281 281 282 282 283 280 280 281 282 282 280 280 280 280 280 279 278
280 280 280 278 278 281 282 283 285 287 286 288 288 284 283 283 282 280 277 277 278 281 281 282 283 284 281 279 279 281 283 282 279 279 280 279 279 279
280 280 281 279 279 279 280 282 284 285 285 286 286 284 283 282 282 281 279 277 276 278 279 281 283 285 283 279 278 280 281 282 281 280 280 279 278 277
281 280 281 282 278 278 279 281 284 285 285 284 283 281 281 281 281 281 280 278 278 278 279 280 281 283 283 280 278 278 279 280 280 280 278 278 278 277
285 283 282 282 281 279 280 282 284 285 285 283 282 280 280 280 281 281 280 281 281 280 280 281 281 282 283 282 281 280 281 279 279 281 280 279 279 280
286 284 284 284 283 281 282 283 284 284 284 282 281 280 280 281 281 281 281 281 282 282 281 281 281 280 281 281 281 279 278 277 277 278 279 280 279 279
285 284 284 285 284 283 284 284 285 286 284 282 282 282 281 281 281 281 281 282 282 283 282 281 281 281 281 281 278 277 277 277 278 278 279 280 280 279
284 283 284 285 285 286 285 285 285 285 284 282 281 282 282 281 281 282 282 283 283 283 283 282 282 282 281 279 278 277 277 277 278 278 280 280 279 277
282 282 281 282 283 284 284 284 284 284 283 282 282 282 282 282 283 283 283 283 284 284 284 283 281 281 280 279 278 278 277 277 278 279 279 279 278 277
282 282 282 282 282 283 283 283 283 283 283 282 282 282 282 283 284 285 284 284 284 283 282 282 281 279 279 279 278 278 278 279 279 279 278 278 278 278
283 283 283 283 283 283 283 282 283 284 284 284 282 282 283 284 284 285 284 284 284 283 282 281 281 280 279 279 278 278 278 279 280 280 279 278 279 278
284 282 282 282 283 283 281 282 284 284 284 284 282 282 284 284 284 284 285 284 283 283 282 282 282 281 279 279 280 279 280 281 282 281 280 279 278 277
283 282 281 281 281 281 282 284 284 284 284 283 283 284 283 283 285 286 285 285 285 283 282 282 281 280 279 279 280 282 283 283 282 282 280 280 279 278
282 281 281 281 281 281 283 285 285 286 286 285 284 284 284 285 286 286 286 287 286 283 281 280 281 280 280 280 280 282 283 283 282 281 280 279 278 278
282 281 281 282 282 283 284 284 284 285 286 287 287 287 287 287 287 288 287 288 288 286 283 283 283 282 281 281 281 280 281 282 282 281 279 279 278 278
282 281 281 282 282 283 285 284 283 283 286 287 287 287 288 288 288 288 287 288 288 287 286 285 284 283 281 282 282 281 281 281 282 281 280 279 279 279
281 281 281 280 281 283 284 284 284 284 284 286 289 289 289 290 289 288 288 288 287 286 287 286 285 283 282 282 282 282 281 280 280 280 280 280 280 280
Height
5845 5845 5844 5844 5844 5843 5843 5843 5843 5842 5841 5840 5839 5839 5839 5839 5838 5838 5839 5839 5838 5838 5838 5838 5837 5837 5837 5837 5836 5836 5835 5835 5834 5833 5833 5832 5831 5830
5841 5841 5841 5840 5840 5840 5839 5839 5838 5838 5837 5836 5834 5834 5834 5834 5833 5833 5833 5833 5833 5833 5833 5833 5833 5832 5832 5831 5831 5831 5830 5830 5829 5828 5828 5827 5826 5825
5837 5837 5837 5836 5836 5836 5835 5834 5834 5833 5833 5832 5830 5830 5829 5828 5828 5828 5828 5828 5828 5828 5828 5828 5827 5827 5826 5826 5826 5825 5824 5824 5823 5823 5822 5822 5821 5820
5833 5832 5832 5832 5831 5831 5830 5830 5829 5828 5828 5827 5826 5825 5824 5823 5823 5823 5823 5823 5822 5822 5822 5822 5821 5821 5820 5820 5820 5819 5818 5818 5817 5817 5816 5816 5815 5814
5828 5827 5827 5827 5826 5826 5825 5825 5824 5823 5822 5822 5821 5820 5819 5818 5818 5817 5817 5817 5817 5817 5816 5816 5815 5815 5814 5814 5813 5813 5812 5812 5811 5810 5810 5809 5809 5808
5823 5822 5822 5821 5821 5821 5820 5819 5819 5818 5817 5816 5815 5814 5813 5812 5812 5812 5811 5811 5810 5810 5810 5809 5808 5808 5808 5807 5807 5806 5805 5805 5804 5803 5803 5802 5802 5801
5817 5817 5816 5816 5815 5815 5814 5813 5813 5812 5811 5810 5809 5808 5807 5806 5806 5805 5805 5804 5804 5803 5803 5802 5802 5801 5801 5800 5800 5799 5798 5797 5797 5796 5795 5795 5794 5793
5811 5810 5810 5809 5809 5808 5807 5807 5806 5805 5804 5804 5802 5801 5800 5800 5799 5798 5798 5798 5797 5797 5796 5796 5795 5794 5793 5793 5792 5791 5790 5790 5789 5788 5788 5787 5786 5786
5804 5804 5803 5802 5802 5802 5801 5800 5799 5798 5797 5797 5796 5794 5793 5793 5792 5791 5791 5790 5790 5789 5789 5788 5788 5787 5786 5785 5784 5784 5783 5782 5781 5780 5780 5779 5779 5778
5798 5797 5796 5796 5795 5794 5794 5793 5792 5791 5790 5789 5788 5787 5786 5785 5785 5784 5783 5783 5782 5781 5781 5781 5780 5779 5778 5777 5776 5776 5775 5774 5773 5773 5772 5771 5771 5770
5791 5790 5789 5789 5788 5787 5786 5786 5785 5783 5782 5781 5780 5779 5778 5778 5777 5776 5776 5775 5774 5773 5772 5772 5771 5770 5770 5769 5768 5767 5767 5766 5765 5764 5764 5763 5762 5762
5784 5783 5782 5781 5780 5779 5779 5778 5777 5776 5774 5773 5772 5772 5771 5770 5769 5768 5768 5767 5766 5765 5764 5763 5763 5762 5761 5761 5759 5759 5758 5757 5757 5756 5755 5755 5754 5753
5777 5776 5775 5774 5773 5772 5771 5770 5769 5768 5766 5765 5764 5764 5763 5762 5761 5760 5759 5758 5758 5757 5756 5755 5754 5753 5752 5752 5751 5750 5749 5748 5748 5747 5746 5746 5745 5745
5769 5768 5767 5767 5766 5765 5763 5762 5761 5760 5759 5758 5757 5756 5755 5754 5753 5752 5751 5750 5749 5748 5746 5745 5745 5744 5743 5742 5742 5741 5740 5739 5739 5738 5737 5737 5736 5736
5761 5761 5760 5759 5758 5756 5755 5754 5753 5752 5750 5749 5749 5748 5747 5746 5745 5744 5742 5741 5740 5738 5737 5736 5735 5734 5734 5733 5732 5732 5732 5731 5730 5729 5728 5727 5727 5726
5753 5752 5751 5750 5749 5748 5747 5745 5744 5743 5742 5741 5740 5739 5738 5737 5736 5735 5733 5732 5731 5729 5727 5726 5725 5725 5724 5723 5723 5722 5722 5721 5720 5719 5718 5717 5717 5716
5744 5743 5743 5742 5741 5739 5738 5737 5735 5734 5734 5732 5731 5730 5729 5728 5726 5725 5724 5722 5721 5720 5718 5717 5716 5715 5714 5713 5713 5712 5711 5711 5710 5709 5708 5707 5707 5706
5735 5734 5734 5733 5732 5731 5729 5728 5726 5725 5724 5723 5722 5721 5720 5718 5717 5715 5714 5712 5711 5710 5709 5708 5706 5706 5705 5704 5703 5702 5702 5701 5700 5699 5698 5697 5697 5696
5726 5725 5725 5724 5723 5722 5721 5719 5718 5716 5715 5714 5713 5712 5711 5709 5707 5706 5705 5703 5702 5701 5699 5698 5697 5697 5696 5695 5694 5693 5692 5691 5690 5689 5688 5688 5687 5686
5718 5717 5716 5716 5714 5713 5712 5711 5709 5708 5706 5705 5704 5703 5702 5701 5699 5697 5696 5694 5693 5691 5690 5689 5688 5687 5687 5686 5685 5684 5682 5681 5680 5679 5678 5678 5677 5676
5709 5709 5708 5707 5706 5705 5704 5702 5701 5700 5698 5697 5696 5695 5693 5692 5690 5688 5687 5685 5684 5683 5681 5680 5679 5678 5677 5676 5676 5675 5673 5671 5670 5669 5668 5668 5667 5667
5701 5700 5700 5699 5698 5697 5696 5694 5693 5692 5691 5689 5688 5686 5685 5683 5681 5680 5678 5677 5675 5674 5672 5671 5670 5669 5668 5667 5666 5665 5664 5662 5661 5659 5658 5658 5657 5657
5693 5692 5691 5690 5689 5688 5687 5686 5685 5684 5682 5681 5679 5678 5676 5675 5673 5671 5670 5668 5667 5665 5664 5662 5661 5660 5659 5657 5656 5655 5653 5652 5651 5650 5650 5648 5647 5647